Location: Sherrills_Ford_Terrell
(35.6000°N, 80.9830°W)
Time: 15:05:56
(UTC-04:00)

ISS - Visible Passes

Search period start: 22 May 2017 00:00
Search period end: 01 June 2017 00:00
Orbit: 402 x 408 km, 51.6° (Epoch: 22 May)

Date Brightness Start Highest point End Pass type
(mag) Time Alt. Az. Time Alt. Az. Time Alt. Az.
22 May -1.9 05:31:56 10° NNW 05:34:59 34° NE 05:37:59 10° ESE visible
22 May -1.3 22:09:35 10° SSW 22:09:53 12° SSW 22:09:53 12° SSW visible
23 May -0.9 04:40:16 10° NNW 04:42:49 20° NNE 04:45:20 10° E visible
23 May -2.8 21:18:06 10° S 21:20:52 25° SE 21:23:38 10° ENE visible
23 May -1.6 22:54:25 10° W 22:57:17 27° NW 23:00:10 10° NNE visible
24 May -0.4 03:48:53 10° N 03:50:32 13° NNE 03:52:11 10° ENE visible
24 May -3.9 05:24:09 10° NW 05:27:25 86° SW 05:30:41 10° SE visible
24 May -2.9 22:01:56 10° WSW 22:05:09 51° NW 22:08:22 10° NE visible
25 May -2.6 04:32:12 10° NW 04:35:21 44° NE 04:38:29 10° ESE visible
25 May -3.9 21:09:48 10° SW 21:13:05 74° SE 21:16:22 10° NE visible
25 May -0.4 22:48:00 10° WNW 22:49:54 14° NNW 22:51:49 10° N visible
26 May -1.4 03:40:25 10° NNW 03:43:11 24° NNE 03:45:56 10° E visible
26 May -3.0 05:16:47 10° WNW 05:19:39 28° SW 05:22:30 10° SSE visible
26 May -1.1 21:54:57 10° W 21:57:38 22° NNW 22:00:18 10° NNE visible
27 May -0.7 02:48:51 10° N 02:50:54 15° NNE 02:51:07 15° NNE visible
27 May -4.0 04:27:38 63° SW 04:27:41 63° SW 04:30:54 10° SE visible
27 May -2.2 21:02:18 10° WSW 21:05:25 39° NW 21:08:32 10° NE visible
28 May -0.5 21:48:44 10° NW 21:50:13 12° NNW 21:51:41 10° N visible
